TimeAKDT,TemperatureF,Dew PointF,Humidity,Sea Level PressureIn,VisibilityMPH,Wind Direction,Wind SpeedMPH,Gust SpeedMPH,PrecipitationIn,Events,Conditions,WindDirDegrees,DateUTC
12:53 AM,46.9,44.1,90,29.84,10.0,North,5.8,-,0.00,,Overcast,10,2012-09-25 08:53:00
1:53 AM,46.0,44.1,93,29.81,10.0,Calm,Calm,-,N/A,,Overcast,0,2012-09-25 09:53:00
2:18 AM,46.4,42.8,87,29.81,10.0,Calm,Calm,-,N/A,,Overcast,0,2012-09-25 10:18:00
2:53 AM,46.0,44.1,93,29.81,10.0,Calm,Calm,-,N/A,,Overcast,0,2012-09-25 10:53:00
3:53 AM,46.0,44.1,93,29.78,10.0,NE,3.5,-,N/A,,Overcast,40,2012-09-25 11:53:00
4:38 AM,44.6,44.6,100,29.74,10.0,Variable,4.6,-,N/A,,Overcast,0,2012-09-25 12:38:00
4:53 AM,45.0,44.1,97,29.74,10.0,NNW,6.9,-,N/A,,Overcast,330,2012-09-25 12:53:00
5:24 AM,44.6,44.6,100,29.73,10.0,Calm,Calm,-,N/A,,Overcast,0,2012-09-25 13:24:00
5:53 AM,45.0,43.0,93,29.72,10.0,Variable,4.6,-,N/A,,Overcast,0,2012-09-25 13:53:00
6:32 AM,44.6,44.6,100,29.70,10.0,Calm,Calm,-,N/A,,Overcast,0,2012-09-25 14:32:00
6:53 AM,45.0,44.1,97,29.70,10.0,Calm,Calm,-,N/A,,Overcast,0,2012-09-25 14:53:00
7:19 AM,44.6,42.8,93,29.67,10.0,Calm,Calm,-,N/A,,Mostly Cloudy,0,2012-09-25 15:19:00
7:53 AM,45.0,43.0,93,29.67,10.0,Calm,Calm,-,N/A,,Mostly Cloudy,0,2012-09-25 15:53:00
8:53 AM,45.0,43.0,93,29.64,10.0,Calm,Calm,-,N/A,,Overcast,0,2012-09-25 16:53:00
9:00 AM,44.6,42.8,93,29.63,10.0,Calm,Calm,-,N/A,,Overcast,0,2012-09-25 17:00:00
9:53 AM,45.0,43.0,93,29.62,10.0,Calm,Calm,-,N/A,,Overcast,0,2012-09-25 17:53:00
10:00 AM,44.6,42.8,93,29.61,10.0,Calm,Calm,-,N/A,,Overcast,0,2012-09-25 18:00:00
11:53 AM,46.9,42.1,83,29.55,10.0,North,4.6,-,N/A,,Mostly Cloudy,360,2012-09-25 19:53:00
12:00 PM,46.4,41.0,81,29.54,10.0,North,4.6,-,N/A,,Overcast,360,2012-09-25 20:00:00
12:53 PM,46.0,43.0,89,29.51,10.0,Calm,Calm,-,N/A,,Mostly Cloudy,0,2012-09-25 20:53:00
1:53 PM,48.0,43.0,83,29.47,10.0,Calm,Calm,-,N/A,,Overcast,0,2012-09-25 21:53:00
2:53 PM,48.9,43.0,80,29.44,10.0,WNW,3.5,-,N/A,,Overcast,300,2012-09-25 22:53:00
3:53 PM,48.9,44.1,83,29.39,10.0,Calm,Calm,-,N/A,,Overcast,0,2012-09-25 23:53:00
4:53 PM,50.0,45.0,83,29.36,10.0,WSW,5.8,-,N/A,,Overcast,240,2012-09-26 00:53:00
5:53 PM,48.9,44.1,83,29.31,10.0,Calm,Calm,-,N/A,,Overcast,0,2012-09-26 01:53:00
6:53 PM,48.9,44.1,83,29.28,10.0,WNW,6.9,-,N/A,,Overcast,290,2012-09-26 02:53:00
7:53 PM,48.9,44.1,83,29.26,10.0,Calm,Calm,-,N/A,,Overcast,0,2012-09-26 03:53:00
8:53 PM,48.0,44.1,86,29.25,10.0,Calm,Calm,-,0.00,Rain,Light Rain,0,2012-09-26 04:53:00
9:53 PM,46.9,42.1,83,29.26,10.0,Calm,Calm,-,0.00,,Mostly Cloudy,0,2012-09-26 05:53:00
10:53 PM,46.0,42.1,86,29.29,10.0,Variable,3.5,-,N/A,,Mostly Cloudy,0,2012-09-26 06:53:00
11:53 PM,48.0,39.9,74,29.31,10.0,North,4.6,-,N/A,,Mostly Cloudy,350,2012-09-26 07:53:00